Zurück zum Katalog

CZ-4C SEP MOTOR COVER

AktivSSO
NORAD 49047·DEBRIS·🇨🇳 China
Dieser Satellitenname wurde noch nicht durch offizielle Quellen bestätigt.

Gestartet Jul 4, 2021 von Jiuquan Satellite Launch Center

Loading…

Nächste Überflüge (nächste 24 Stunden)

TLE

AktuellSource: Space-Track

Epoche: Sep 14, 2026, 06:45 UTC

1 49047U 21062E   26257.28125064  .00000047  00000-0  36980-4 0  9996
2 49047  98.6611 275.9567 0004990 152.0717 208.0733 14.27882675268518

Verfolge CZ-4C SEP MOTOR COVER in Echtzeit mit AllMySat

Download on the App Store